This is the latest recevied weather packets stored in our database for station/object KD4MBW. If no packets are shown the sender has not sent any weather packets the latest 10 day(s).
| Time | Temp. | Humidity | Pressure | Rain* | Wind** | Luminosity | Snow |
|---|---|---|---|---|---|---|---|
| 1787840253 | 27.78° C | 90% | 1015.8 hPa | 0 mm | - | 101 W/m² | - |
| 1787839952 | 27.78° C | 90% | 1015.8 hPa | 0 mm | - | 99 W/m² | - |
| 1787839648 | 27.78° C | 90% | 1015.9 hPa | 0 mm | - | 101 W/m² | - |
| 1787839343 | 27.78° C | 90% | 1015.8 hPa | 0 mm | - | 104 W/m² | - |
| 1787839043 | 27.78° C | 91% | 1016 hPa | 0 mm | - | 110 W/m² | - |
| 1787838742 | 27.78° C | 90% | 1016 hPa | 0 mm | - | 116 W/m² | - |
| 1787838440 | 28.33° C | 89% | 1016.2 hPa | 0 mm | - | 126 W/m² | - |
| 1787838135 | 27.78° C | 89% | 1016 hPa | 0 mm | - | 140 W/m² | - |
| 1787837829 | 27.78° C | 90% | 1015.9 hPa | 0 mm | - | 154 W/m² | - |
| 1787837524 | 28.33° C | 88% | 1016 hPa | 0 mm | - | 169 W/m² | - |
| 1787837223 | 27.78° C | 88% | 1015.9 hPa | 0 mm | - | 194 W/m² | - |
| 1787836922 | 28.33° C | 88% | 1016 hPa | 0 mm | - | 222 W/m² | - |
| 1787836617 | 27.78° C | 88% | 1015.8 hPa | 0 mm | - | 217 W/m² | - |
| 1787836317 | 28.33° C | 87% | 1015.8 hPa | 0 mm | - | 225 W/m² | - |
| 1787836013 | 27.78° C | 88% | 1015.7 hPa | 0 mm | - | 239 W/m² | - |
| 1787835708 | 27.78° C | 89% | 1015.5 hPa | 0 mm | - | 245 W/m² | - |
| 1787835403 | 27.78° C | 89% | 1015.4 hPa | 0 mm | - | 201 W/m² | - |
| 1787835098 | 27.78° C | 87% | 1015.4 hPa | 0 mm | - | 183 W/m² | - |
| 1787834797 | 27.22° C | 89% | 1015.2 hPa | 0 mm | - | 180 W/m² | - |
| 1787834492 | 27.22° C | 90% | 1015.2 hPa | 0 mm | - | 198 W/m² | - |
| 1787834187 | 27.22° C | 90% | 1015.1 hPa | 0 mm | - | 182 W/m² | - |
| 1787833883 | 26.67° C | 91% | 1015.1 hPa | 0 mm | - | 130 W/m² | - |
| 1787833578 | 26.11° C | 92% | 1014.9 hPa | 0 mm | - | 121 W/m² | - |
| 1787833274 | 25.56° C | 93% | 1014.8 hPa | 0 mm | - | 123 W/m² | - |
| 1787832969 | 25.56° C | 96% | 1015.1 hPa | 0 mm | - | 76 W/m² | - |
* Rain latest hour (hover to see other rain measurements)
** Current wind speed in m/s (hover to see current wind gust speed)